Weather in Maza

Russia / Vologda Oblast     59°19′31″N   36°43′26″E
temp.,
°C
wind,
m/s
gust,
m/s
humid.,
%
clouds,
%
prec.,
mm/h
press.,
hPa
HPBL,
m
23 april, fri
fri2300:00+5sse398710 0.0 1011175
03:00+4se399266 0.0 1011193
06:00+5se4119494 0.0 1010302
09:00+10sse61174100 0.0 1009673
12:00+11s61078100 0.4 10091367
15:00+5w7993100 1.4 1010590
18:00+6ssw2588100 1.3 1010427
21:00+4se3696100 1.9 1012167
24 april, sat
sat2400:00+4sse2695100 0.0 1011237
03:00+4se3797100 0.0 1010229
06:00+4ese3598100 0.9 1008343
09:00+3s0097100 3.9 1007504
12:00+3w1397100 2.6 1007475
15:00+3wnw3898100 5.2 1006536
18:00+4nw3690100 0.5 1006534
21:00+2nw1195100 0.5 100612
25 april, sun
sun2500:00+2wnw3891100 0.0 1005326
03:00+1wnw4992100 0.0 1005373
06:00+1wnw4994100 0.3 1004496
09:00+2wnw5986100 0.6 1004663
12:00+3wnw5981100 0.4 10041115
15:00+4wnw5978100 1.1 10051179
18:00+4wnw4975100 0.3 10051214
21:00+2w3982100 0.3 1006340
26 april, mon
mon2600:00+1wsw498599 0.0 1006377
03:00+1wsw3986100 0.0 1006348
06:00+1wsw3888100 0.0 1006374
09:00+3wsw5774100 0.0 1006749
12:00+6wsw5758100 0.1 10061689
15:00+7w6749100 0.1 10071839
18:00+5w5762100 0.0 10071074
21:00+2wsw3877100 0.0 1007250
27 april, tue
tue2700:000wsw2585100 0.0 1007121
03:00−1sw2584100 0.0 1007130
06:000sw2580100 0.0 1006166
09:00+4wsw3558100 0.0 1006776
12:00+7wsw4644100 0.0 10052042
15:00+8wsw4638100 0.0 10042127
18:00+7wsw365074 0.1 10051567
21:00+3wsw2777100 0.1 1006194